TimeEDT,TemperatureF,Dew PointF,Humidity,Sea Level PressureIn,VisibilityMPH,Wind Direction,Wind SpeedMPH,Gust SpeedMPH,PrecipitationIn,Events,Conditions,WindDirDegrees,DateUTC
12:17 AM,66.2,62.6,88,29.79,8.0,SE,6.9,-,0.04,Rain-Thunderstorm,Light Rain,140,2013-05-23 04:17:00
12:32 AM,66.2,62.6,88,29.81,10.0,South,5.8,-,0.04,,Overcast,190,2013-05-23 04:32:00
12:53 AM,66.0,63.0,90,29.79,10.0,Calm,Calm,-,0.04,,Overcast,0,2013-05-23 04:53:00
1:53 AM,66.0,62.1,87,29.79,10.0,Variable,5.8,-,N/A,,Partly Cloudy,0,2013-05-23 05:53:00
2:53 AM,64.9,61.0,87,29.79,10.0,SSW,4.6,-,N/A,,Scattered Clouds,210,2013-05-23 06:53:00
3:53 AM,64.9,61.0,87,29.79,10.0,Variable,4.6,-,N/A,,Overcast,0,2013-05-23 07:53:00
4:06 AM,64.4,60.8,88,29.81,10.0,Variable,4.6,-,N/A,,Overcast,0,2013-05-23 08:06:00
4:53 AM,64.9,61.0,87,29.79,10.0,South,4.6,-,N/A,,Overcast,180,2013-05-23 08:53:00
5:53 AM,64.0,60.1,87,29.80,10.0,South,4.6,-,N/A,,Mostly Cloudy,190,2013-05-23 09:53:00
6:22 AM,64.4,60.8,88,29.82,10.0,SSE,4.6,-,N/A,,Scattered Clouds,160,2013-05-23 10:22:00
6:53 AM,63.0,60.1,90,29.81,10.0,Calm,Calm,-,N/A,,Scattered Clouds,0,2013-05-23 10:53:00
7:12 AM,64.4,60.8,88,29.84,10.0,Variable,3.5,-,N/A,,Mostly Cloudy,0,2013-05-23 11:12:00
7:53 AM,64.9,60.1,84,29.83,10.0,South,6.9,-,N/A,,Overcast,190,2013-05-23 11:53:00
8:44 AM,66.2,60.8,83,29.85,10.0,WSW,6.9,-,N/A,,Mostly Cloudy,240,2013-05-23 12:44:00
8:53 AM,66.9,60.1,79,29.83,10.0,SSW,10.4,-,N/A,,Mostly Cloudy,200,2013-05-23 12:53:00
9:53 AM,66.0,59.0,78,29.85,10.0,Variable,6.9,-,N/A,,Overcast,0,2013-05-23 13:53:00
10:53 AM,70.0,60.1,71,29.84,10.0,SSW,6.9,-,N/A,,Overcast,210,2013-05-23 14:53:00
11:53 AM,69.1,59.0,70,29.83,10.0,SW,8.1,-,0.00,Rain,Light Rain,220,2013-05-23 15:53:00
12:53 PM,71.1,59.0,66,29.81,10.0,WSW,8.1,-,0.00,,Mostly Cloudy,240,2013-05-23 16:53:00
1:53 PM,73.9,55.9,53,29.79,10.0,SW,10.4,-,N/A,Thunderstorm,Partly Cloudy,220,2013-05-23 17:53:00
2:09 PM,71.6,53.6,53,29.81,10.0,West,10.4,18.4,N/A,,Scattered Clouds,280,2013-05-23 18:09:00
2:53 PM,73.0,55.0,53,29.78,8.0,Variable,6.9,18.4,N/A,,Mostly Cloudy,0,2013-05-23 18:53:00
3:53 PM,73.9,55.0,52,29.78,10.0,WSW,11.5,18.4,0.00,,Scattered Clouds,240,2013-05-23 19:53:00
4:53 PM,73.0,54.0,51,29.78,10.0,WNW,12.7,20.7,N/A,,Mostly Cloudy,300,2013-05-23 20:53:00
5:53 PM,71.1,51.1,49,29.80,10.0,West,16.1,26.5,N/A,,Overcast,280,2013-05-23 21:53:00
6:53 PM,66.9,54.0,63,29.83,10.0,WNW,11.5,20.7,N/A,,Overcast,290,2013-05-23 22:53:00
7:44 PM,60.8,53.6,77,29.87,10.0,NW,16.1,23.0,N/A,,Overcast,320,2013-05-23 23:44:00
7:53 PM,55.9,52.0,87,29.87,4.0,NW,12.7,25.3,0.00,Rain,Light Rain,320,2013-05-23 23:53:00
8:15 PM,51.8,48.2,88,29.91,4.0,NW,15.0,26.5,0.01,Rain,Light Rain,320,2013-05-24 00:15:00
8:25 PM,51.8,48.2,88,29.92,5.0,NNW,18.4,25.3,0.01,Rain,Light Rain,330,2013-05-24 00:25:00
8:35 PM,50.0,46.4,87,29.93,7.0,NW,18.4,29.9,0.02,Rain,Light Rain,320,2013-05-24 00:35:00
8:53 PM,48.9,45.0,86,29.94,10.0,NNW,13.8,24.2,0.02,,Overcast,330,2013-05-24 00:53:00
9:13 PM,48.2,44.6,87,29.94,10.0,NNW,10.4,19.6,0.00,,Overcast,330,2013-05-24 01:13:00
9:48 PM,46.4,42.8,87,29.96,10.0,NW,15.0,20.7,0.00,,Overcast,320,2013-05-24 01:48:00
9:53 PM,46.9,43.0,86,29.97,10.0,NNW,11.5,20.7,0.00,,Overcast,330,2013-05-24 01:53:00
10:53 PM,46.0,39.9,79,30.00,10.0,NNW,13.8,24.2,N/A,,Overcast,330,2013-05-24 02:53:00
11:53 PM,45.0,39.9,82,30.02,10.0,NNW,12.7,-,N/A,,Overcast,340,2013-05-24 03:53:00